Location: Holiday Acres Laynes 2 Mobile Home Park
(26.7249°N, 81.8671°W)
Time: 06:48:05
(UTC+00:00)

Okean-O - Pass Details

Date: 25 November 2020
Orbit: 639 x 640 km, 98.2° (Epoch: 21 January)

Event Time Altitude Azimuth Distance (km) Brightness Sun altitude
Rises 23:38:55 0° 146° (SE) 2,928 5.8 -14.4°
Reaches altitude 10° 23:41:18 10° 136° (SE) 2,022 4.9 -14.9°
Maximum altitude 23:45:11 32° 73° (ENE) 1,107 3.3 -15.7°
Drops below altitude 10° 23:49:06 10° 11° (N) 2,031 4.9 -16.6°
Sets 23:51:29 0° 1° (N) 2,943 5.9 -17.1°
